Terminal Aerodrome Forecast
Issued by NWS Amarillo, TX

Home | Current Version | Previous Version | Text Only | Print | Product List | Glossary On
Versions: 1 2 3 4 5 6 7 8 9 10 11 12 13 14 15
000
FTUS44 KAMA 310003 AAA
TAFGUY
TAF AMD
KGUY 310003Z 3100/3124 17008KT 6SM HZ SKC
      TEMPO 3100/3104 5SM HZ
     FM311600 20015G20KT P6SM SKC=

USA.gov is the U.S. government's official web portal to all federal, state and local government web resources and services.